Location: Kalberh�ni
(46.4610°N, 7.2453°E)
Time: 06:12:23
(UTC+00:00)

FALCON 9 DEB - Pass Details

Date: 28 October 2021
Orbit: 344 x 354 km, 53.0° (Epoch: 30 November)

Event Time Altitude Azimuth Distance (km) Brightness Sun altitude
Rises 18:30:37 0° 255° (WSW) 2,171 7.9 -22.7°
Reaches altitude 10° 18:32:41 10° 262° (W) 1,334 6.6 -23.0°
Enters shadow 18:34:34 31° 286° (WNW) 660 4.6 -23.3°
